Погода в Верхней Сысерти

Россия / Свердловская область     56°26′16″N   60°45′18″E
темп.,
°C
ветер,
м/с
пор.,
м/с
влажн.,
%
обл.,
%
осадки,
мм/ч
давл.,
гПа
погр.,
м
11 мая, вт
вт1123:00+11ююв11485 0.0 102611
02:00+9ююв11524 0.0 102610
05:00+8ю11575 0.0 102710
08:00+14ю24415 0.0 1028300
11:00+19ю2227100 0.0 10281290
14:00+21ююз1222100 0.0 10271720
17:00+21зюз1222100 0.0 10271859
20:00+17юз11385 0.0 102711
12 мая, ср
ср1223:00+13з11484 0.0 102810
02:00+12з23505 0.0 102842
05:00+11зсз227413 0.0 102914
08:00+16ссз2365100 0.0 1029342
11:00+21сз245115 0.0 10281263
14:00+24ссз45348 0.0 10272310
17:00+24сз35266 0.0 10262218
20:00+19сз22415 0.0 102723
13 мая, чт
чт1323:00+15зсз115177 0.0 102811
02:00+13зсз226354 0.0 102813
05:00+12зсз22707 0.0 102818
08:00+18сз245297 0.0 1028303
11:00+22сз35355 0.0 10271484
14:00+25ссз34298 0.0 10262081
17:00+26с342911 0.0 10262240
20:00+21св114726 0.0 102611
14 мая, пт
пт1423:00+16з115640 0.0 102711
02:00+15в006462 0.0 102711
05:00+13юз11682 0.0 102810
08:00+20юз23480 0.0 1027277
11:00+25юз243114 0.0 10262058
14:00+27зюз34265 0.0 10242761
17:00+27з45255 0.0 10242886
20:00+22з22430 0.0 102430
15 мая, сб
сб1523:00+18з23545 0.0 102447
02:00+16з2261100 0.0 102426
05:00+15з266513 0.0 1024104
08:00+21з37465 0.0 1024362
11:00+26з453134 0.0 10231621
14:00+28з4525100 0.0 10212614
17:00+27з563074 0.0 10202555
20:00